Copper Harbor, MI

10:31 AM EDT on June 26, 2017 (GMT -0400)
Copper Harbor

Weather History for KP59 - March, 2013

Change the Weather History Date:

Sunday, March 17, 2013

  Actual Average Record
Temperature  
Mean Temperature 17 °F -  
Max Temperature 24 °F 31 °F 72 °F (2012)
Min Temperature 10 °F 18 °F 5 °F (1997)
Degree Days  
Heating Degree Days 48    
Moisture  
Dew Point 5 °F    
Average Humidity 63    
Maximum Humidity 78    
Minimum Humidity 52    
Precipitation  
Precipitation 0.00 in - - ()
Sea Level Pressure  
Sea Level Pressure 30.26 in    
Wind  
Wind Speed 14 mph (NNE)    
Max Wind Speed 26 mph    
Max Gust Speed 34 mph    
Averages and records for this station are not official NWS values.
T = Trace of Precipitation, MM = Missing Value Source: NWS Daily Summary

Daily Weather History Graph

Daily Weather History Graph

Search for Another Location

Airport or City:

Trip Planner

Search our weather history database for the weather conditions in past years. The results will help you decide how hot, cold, wet, or windy it might be!

Date:

Astronomy

Mar. 17, 2013 Rise Set
Actual Time 8:00 AM EDT 8:00 PM EDT
Civil Twilight 7:29 AM EDT 8:31 PM EDT
Nautical Twilight 6:53 AM EDT 9:07 PM EDT
Astronomical Twilight 6:16 AM EDT 9:43 PM EDT
Moon 10:49 AM EDT (3/17) 1:30 AM EDT (3/17)
Length of Visible Light 13h 01m
Length of Day
12h 00m
Waxing Crescent, 31% of the Moon is Illuminated
Mar 17
Waxing Crescent
Mar 19
First Quarter
Mar 27
Full
Apr 3
Last Quarter
Apr 10
New

Hourly Weather History & Observations

Time (EDT) Temp. Windchill Dew Point Humidity Pressure Visibility Wind Dir Wind Speed Gust Speed Precip Events Conditions
12:51 AM 14.0 °F -5.1 °F 3.0 °F 62% 30.19 in - NNE 24.2 mph 34.5 mph N/A   Unknown
1:51 AM 14.0 °F -5.8 °F 3.0 °F 62% 30.22 in - NNE 26.5 mph 34.5 mph N/A   Unknown
2:51 AM 12.9 °F -5.3 °F 3.0 °F 65% 30.25 in - NNE 20.7 mph 26.5 mph N/A   Unknown
3:51 AM 12.0 °F -4.5 °F 1.9 °F 64% 30.28 in - North 16.1 mph - N/A   Unknown
4:51 AM 12.0 °F -2.7 °F 3.0 °F 67% 30.29 in - NE 12.7 mph - N/A   Unknown
5:51 AM 12.0 °F -4.0 °F 3.0 °F 67% 30.30 in - NNE 15.0 mph 23.0 mph N/A   Unknown
6:51 AM 12.0 °F -2.7 °F 3.0 °F 67% 30.32 in - NNE 12.7 mph - N/A   Unknown
7:51 AM 10.9 °F -2.6 °F 3.0 °F 70% 30.33 in - North 10.4 mph - N/A   Unknown
8:51 AM 10.9 °F 0.2 °F 1.9 °F 67% 30.33 in - North 6.9 mph - N/A   Unknown
9:51 AM 12.0 °F -0.4 °F 1.0 °F 61% 30.33 in - NNE 9.2 mph - N/A   Unknown
10:51 AM 14.0 °F 8.2 °F 1.0 °F 56% 30.34 in - North 3.5 mph - N/A   Unknown
11:51 AM 14.0 °F 8.2 °F 1.9 °F 59% 30.33 in - NNE 3.5 mph - N/A   Unknown
12:51 PM 15.1 °F 7.7 °F 1.9 °F 56% 30.33 in - NE 4.6 mph - N/A   Unknown
1:51 PM 16.0 °F 5.3 °F 5.0 °F 62% 30.33 in - SW 8.1 mph - N/A   Unknown
2:51 PM 17.1 °F 7.6 °F 3.0 °F 54% 30.31 in - Variable 6.9 mph - N/A   Unknown
3:51 PM 18.0 °F 9.8 °F 3.0 °F 52% 30.28 in - SW 5.8 mph - N/A   Unknown
4:51 PM 19.0 °F 10.0 °F 7.0 °F 59% 30.26 in - SW 6.9 mph - N/A   Unknown
5:51 PM 19.0 °F 10.0 °F 9.0 °F 65% 30.24 in - South 6.9 mph - N/A   Unknown
6:51 PM 19.9 °F 14.9 °F 10.0 °F 65% 30.24 in - Variable 3.5 mph - N/A   Unknown
7:51 PM 19.9 °F 14.9 °F 10.9 °F 68% 30.20 in - Variable 3.5 mph - N/A   Unknown
8:51 PM 18.0 °F 12.7 °F 12.0 °F 78% 30.19 in - SSE 3.5 mph - N/A   Unknown
9:51 PM 23.0 °F 13.1 °F 12.9 °F 65% 30.16 in - SSW 9.2 mph 18.4 mph N/A   Unknown
10:51 PM 24.1 °F 16.0 °F 10.0 °F 55% 30.14 in - Variable 6.9 mph - N/A   Unknown
11:51 PM 23.0 °F 14.7 °F 12.0 °F 63% 30.12 in - Variable 6.9 mph - N/A   Unknown